Home > Weather > Bowling Green > Past weeks

Flag for U.S.A. Weather for the Past 2 Weeks in Bowling Green, Kentucky, U.S.A.

Now
22 °F

Overcast.


Feels Like: 14 °F
Forecast: 20 / 35 °F
Wind: 7 mph from East

Location: Glasgow Municipal Airport

Current Time: Feb 14, 2016 at 12:47:35 AM

Latest Report: Feb 14, 2016 at 12:10 AM


Visibility: 10 mi

Pressure: 30.43 "Hg

Humidity: 50%

Dew point: 7 °F

Location of Bowling GreenLocation

Historic Weather in Bowling Green — Graph

°F

Bowling Green Temperature Yesterday

Maximum temperature yesterday: 29 °F (at 3:30 PM)
Minimum temperature yesterday: 16 °F (at 6:30 AM)
Average temperature yesterday: 23 °F

High & Low Weather Summary for the Past Weeks

 TemperatureHumidityPressure
High72 °F (Feb 2, 12:55 PM)100% (Feb 1, 3:15 AM)30.56 "Hg (Feb 1, 3:15 AM)
Low15 °F (Feb 10, 6:50 AM)26% (Feb 7, 2:30 PM)29.63 "Hg (Feb 2, 9:35 PM)
Average38 °F69%30.08 "Hg
* Reported Jan 29 11:15 PM — Feb 13 11:30 PM, Bowling Green, Weather by CustomWeather, © 2016

Note: Actual official high and low records may vary slightly from our data, if they occured in-between our weather recording intervals... More about our weather records

Advertising

Bowling Green Weather History for the Previous 24 Hours

 ConditionsComfort  
Time TempWeatherWind HumidityBarometerVisibility
11:30 PM
Sat, Feb 13
22 °FPassing clouds.9 mph54%30.43 "Hg10 mi
11:10 PM22 °FClear.6 mph55%30.43 "Hg10 mi
10:30 PM23 °FClear.6 mph51%30.44 "Hg10 mi
10:10 PM23 °FPassing clouds.8 mph48%30.44 "Hg10 mi
9:50 PM23 °FPassing clouds.6 mph48%30.44 "Hg10 mi
9:10 PM23 °FClear.6 mph48%30.45 "Hg10 mi
8:50 PM23 °FPassing clouds.5 mph49%30.45 "Hg10 mi
8:10 PM22 °FClear.5 mph53%30.47 "Hg10 mi
7:30 PM23 °FClear.5 mph48%30.49 "Hg10 mi
6:50 PM25 °FClear.5 mph45%30.49 "Hg10 mi
6:30 PM25 °FClear.5 mph41%30.50 "Hg10 mi
6:10 PM25 °FClear.5 mph42%30.50 "Hg10 mi
5:50 PM24 °FClear.3 mph47%30.50 "Hg10 mi
5:10 PM25 °FClear.5 mph40%30.49 "Hg10 mi
4:50 PM26 °FClear.5 mph34%30.48 "Hg10 mi
4:10 PM28 °FSunny.6 mph35%30.49 "Hg10 mi
3:50 PM28 °FSunny.No wind33%30.49 "Hg10 mi
3:30 PM29 °FSunny.6 mph36%30.49 "Hg10 mi
2:50 PM28 °FSunny.5 mph33%30.49 "Hg10 mi
2:30 PM29 °FSunny.8 mph36%30.49 "Hg10 mi
2:10 PM28 °FSunny.No wind34%30.49 "Hg10 mi
1:50 PM28 °FSunny.No wind32%30.49 "Hg10 mi
1:30 PM28 °FSunny.8 mph33%30.50 "Hg10 mi
1:10 PM27 °FSunny.8 mph34%30.51 "Hg10 mi
12:50 PM28 °FSunny.5 mph39%30.50 "Hg10 mi
12:30 PM27 °FSunny.9 mph39%30.52 "Hg10 mi
12:10 PM26 °FSunny.9 mph39%30.52 "Hg10 mi
11:50 AM25 °FSunny.8 mph45%30.53 "Hg10 mi
11:10 AM23 °FSunny.6 mph46%30.54 "Hg10 mi
10:50 AM24 °FSunny.7 mph50%30.54 "Hg10 mi
10:10 AM22 °FSunny.9 mph51%30.55 "Hg10 mi
9:50 AM21 °FSunny.10 mph53%30.56 "Hg10 mi
9:30 AM21 °FSunny.9 mph57%30.56 "Hg10 mi
9:10 AM20 °FSunny.9 mph59%30.56 "Hg10 mi
8:50 AM20 °FSunny.9 mph63%30.56 "Hg10 mi
8:30 AM19 °FSunny.9 mph63%30.56 "Hg10 mi
8:10 AM18 °FSunny.10 mph64%30.56 "Hg10 mi
7:50 AM18 °FSunny.10 mph65%30.54 "Hg10 mi
7:30 AM17 °FSunny.8 mph67%30.53 "Hg10 mi
7:10 AM17 °FSunny.9 mph68%30.52 "Hg10 mi
6:50 AM16 °FSunny.9 mph69%30.52 "Hg10 mi
6:30 AM16 °FSunny.7 mph68%30.51 "Hg10 mi
6:10 AM17 °FSunny.7 mph66%30.50 "Hg10 mi
5:30 AM18 °FClear.9 mph64%30.48 "Hg10 mi
5:10 AM18 °FClear.7 mph64%30.47 "Hg10 mi
4:50 AM18 °FClear.7 mph61%30.47 "Hg10 mi
4:30 AM19 °FClear.6 mph58%30.46 "Hg10 mi
4:10 AM19 °FClear.8 mph55%30.45 "Hg10 mi
3:50 AM20 °FClear.6 mph54%30.44 "Hg10 mi
3:30 AM20 °FClear.7 mph58%30.43 "Hg10 mi
3:10 AM21 °FPassing clouds.9 mph55%30.43 "Hg10 mi
2:50 AM22 °FPassing clouds.7 mph65%30.42 "Hg10 mi
2:30 AM22 °FPassing clouds.5 mph61%30.41 "Hg10 mi
1:50 AM23 °FClear.9 mph61%30.40 "Hg10 mi
1:30 AM23 °FClear.7 mph61%30.39 "Hg10 mi
1:10 AM24 °FPassing clouds.9 mph60%30.39 "Hg10 mi
12:50 AM24 °FOvercast.8 mph60%30.39 "Hg10 mi
12:30 AM24 °FOvercast.8 mph60%30.38 "Hg10 mi
12:10 AM24 °FPassing clouds.5 mph61%30.38 "Hg10 mi
Weather by CustomWeather, © 2016

See weather overviewHow to use our weather pages